Location: Newark
(26.0814°N, 97.8289°W)
Time: 15:06:07
(UTC+00:00)

LightSail 2 - Visible Passes

Search period start: 24 January 2020 00:00
Search period end: 03 February 2020 00:00
Orbit: 704 x 719 km, 24.0° (Epoch: 24 January)

Date Brightness Start Highest point End Pass type
(mag) Time Alt. Az. Time Alt. Az. Time Alt. Az.
24 Jan 5.4 01:46:03 10° W 01:51:09 63° S 01:52:15 50° SE visible
25 Jan 5.4 00:47:35 10° W 00:52:42 68° S 00:57:35 11° ESE visible
25 Jan 6.6 02:33:11 10° W 02:36:32 33° SW 02:36:32 33° SW visible
26 Jan 5.7 01:34:39 10° W 01:39:39 51° SSW 01:41:55 29° SE visible
26 Jan 8.2 03:20:49 10° WSW 03:20:53 10° WSW 03:20:53 10° WSW visible
27 Jan 5.6 00:36:09 10° W 00:41:12 59° S 00:46:17 10° ESE visible
27 Jan 6.6 02:22:00 10° W 02:26:20 29° SSW 02:26:20 29° SSW visible
28 Jan 6.3 01:23:19 10° W 01:28:04 37° SSW 01:31:51 15° SE visible
28 Jan 8.0 03:10:26 10° WSW 03:10:50 11° SW 03:10:50 11° SW visible
29 Jan 7.2 02:11:07 10° WSW 02:14:47 20° SSW 02:16:26 17° S visible
30 Jan 7.0 01:12:10 10° WSW 01:16:23 26° SSW 01:20:37 10° SE visible
31 Jan 7.8 02:01:12 10° SW 02:03:02 12° SSW 02:04:53 10° S visible
01 Feb 7.6 01:01:26 10° WSW 01:04:39 17° SSW 01:07:51 10° SSE visible
